Location: Huberhof
(49.2050°N, 7.4980°E)
Time: 00:49:53
(UTC+00:00)

CZ-2D R/B - Pass Details

Date: 29 October 2020
Orbit: 521 x 537 km, 97.4° (Epoch: 26 November)

Event Time Altitude Azimuth Distance (km) Brightness Sun altitude
Rises 17:21:27 0° 153° (SSE) 2,650 6.6 -11.6°
Reaches altitude 10° 17:23:35 10° 148° (SSE) 1,763 5.7 -12.0°
Maximum altitude 17:27:16 51° 72° (ENE) 665 3.3 -12.6°
Drops below altitude 10° 17:30:59 10° 356° (N) 1,772 5.9 -13.2°
Sets 17:33:08 0° 352° (N) 2,665 6.9 -13.5°
